Nos coordonnées

Nous sommes à votre écoute du lundi au dimanche de 10:00 à 19:00 au :

+32 (0)495 19 89 53

 

Adresse d'exploitation Adresse de facturation
Chaussée de Nivelles, 629
6230 Buzet
Belgique
Kouter 107/2
9000 Gent
Belgique

contact @ blackhelicopters.be (n'oubliez pas de supprimer les espaces)


Nous retrouver

Il est très fortement conseillé de nous appeler avant de venir sur le terrain, nous pouvons être en mission ou en vol!

 

La carte ci-dessous est interactive, cherchez vos itinéraires, déplacez la pour vous retrouver.

News

Votre panier

Le panier est vide

Météo Charleroi

METAR
EBCI 180250Z 16006KT CAVOK 06/05 Q1021 NOSIG =
EBCI 172300Z 1800/1906 16004KT CAVOK BECMG 1901/1903 RA SCT007 BKN011 TEMPO 1903/1906 4000 RA -RADZ BKN006
TAF
EBCI 172300Z 1800/1906 16004KT CAVOK BECMG 1901/1903 RA SCT007 BKN011 TEMPO 1903/1906 4000 RA -RADZ BKN006 =
Lever / Coucher : 06:11 / 16:44 UTC (Buzet 2021-10-18)